UPS2502 KSDF-EDDK

Flight info

Callsign UPS2502
Flight time N/A
Altitude 35000
Route EEVAA1 SHIPR DCT PSB DCT KB87C DCT TAFFY/N0457F350 N693A NEEKO/M079F360 DCT 54N050W 55N040W 56N030W 56N020W DCT RESNO DCT NETKI/N0454F370 DCT CON DCT MORAG DCT NUCHU L607 BIG UL9 KONAN UL607 KOK DCT DENOX DCT REMBA UL607 SPI T857 DENOV T861 ERUKI ERUKI1B
Aircraft B763/H-SDE3FGHIM3RWXY/LB1

Departure

Time 2026-05-06 18:57
Airport Louisville Muhammad Ali International Airport (KSDF)

Arrival

Time N/A
Airport Cologne Bonn Airport (EDDK)
Time Latitude Longitude Altitude Speed Heading
2026-05-06 18:35 38.17152 -85.73881 511 ft 0 kts 20°
2026-05-06 18:43 38.17146 -85.73883 511 ft 2 kts 17°
2026-05-06 18:43 38.17132 -85.73886 511 ft 2 kts 356°
2026-05-06 18:44 38.17117 -85.73883 511 ft 2 kts 341°
2026-05-06 18:44 38.17104 -85.73875 511 ft 2 kts 326°
2026-05-06 18:44 38.17092 -85.73863 511 ft 2 kts 310°
2026-05-06 18:44 38.17084 -85.73848 511 ft 2 kts 295°
2026-05-06 18:45 38.17081 -85.73840 511 ft 0 kts 290°
2026-05-06 18:47 38.17082 -85.73843 511 ft 1 kts 290°
2026-05-06 18:47 38.17088 -85.73865 511 ft 3 kts 289°
2026-05-06 18:48 38.17098 -85.73901 511 ft 4 kts 289°
2026-05-06 18:48 38.17111 -85.73943 511 ft 5 kts 290°
2026-05-06 18:48 38.17125 -85.73991 511 ft 5 kts 293°
2026-05-06 18:48 38.17136 -85.74040 511 ft 5 kts 269°
2026-05-06 18:49 38.17120 -85.74080 511 ft 4 kts 221°
2026-05-06 18:49 38.17087 -85.74087 511 ft 5 kts 172°
2026-05-06 18:49 38.17044 -85.74075 511 ft 6 kts 166°
2026-05-06 18:49 38.16999 -85.74059 511 ft 6 kts 165°
2026-05-06 18:50 38.16951 -85.74044 511 ft 7 kts 165°
2026-05-06 18:50 38.16896 -85.74026 511 ft 8 kts 165°
2026-05-06 18:50 38.16833 -85.74004 511 ft 9 kts 165°
2026-05-06 18:50 38.16762 -85.73979 511 ft 11 kts 165°
2026-05-06 18:51 38.16684 -85.73954 511 ft 12 kts 166°
2026-05-06 18:51 38.16601 -85.73927 511 ft 12 kts 165°
2026-05-06 18:51 38.16517 -85.73900 511 ft 12 kts 166°
2026-05-06 18:51 38.16431 -85.73872 511 ft 12 kts 165°
2026-05-06 18:52 38.16348 -85.73844 511 ft 11 kts 165°
2026-05-06 18:52 38.16276 -85.73820 511 ft 9 kts 165°
2026-05-06 18:52 38.16217 -85.73801 511 ft 7 kts 165°
2026-05-06 18:52 38.16166 -85.73784 511 ft 8 kts 165°
2026-05-06 18:53 38.16106 -85.73764 511 ft 9 kts 165°
2026-05-06 18:53 38.16038 -85.73741 511 ft 10 kts 165°
2026-05-06 18:53 38.15969 -85.73718 511 ft 10 kts 165°
2026-05-06 18:53 38.15906 -85.73698 511 ft 7 kts 173°
2026-05-06 18:54 38.15876 -85.73721 511 ft 4 kts 239°
2026-05-06 18:54 38.15865 -85.73750 511 ft 0 kts 244°
2026-05-06 18:54 38.15862 -85.73762 511 ft 5 kts 252°
2026-05-06 18:54 38.15857 -85.73784 511 ft 0 kts 255°
2026-05-06 18:55 38.15857 -85.73785 511 ft 0 kts 255°
2026-05-06 18:55 38.15851 -85.73815 511 ft 6 kts 255°
2026-05-06 18:55 38.15837 -85.73883 511 ft 7 kts 259°
2026-05-06 18:55 38.15845 -85.73932 511 ft 4 kts 308°
2026-05-06 18:56 38.15866 -85.73944 511 ft 3 kts 342°
2026-05-06 18:56 38.15873 -85.73946 511 ft 0 kts 345°
2026-05-06 18:56 38.15958 -85.73975 511 ft 40 kts 345°
2026-05-06 18:57 38.16460 -85.74140 511 ft 106 kts 345°
2026-05-06 18:57 38.17370 -85.74443 513 ft 159 kts 345°
2026-05-06 18:57 38.18526 -85.74834 798 ft 179 kts 346°
2026-05-06 18:57 38.19730 -85.75232 1452 ft 179 kts 345°
2026-05-06 18:58 38.20919 -85.75646 2090 ft 181 kts 345°
2026-05-06 18:58 38.22151 -85.76085 2659 ft 187 kts 344°
2026-05-06 18:58 38.23377 -85.76572 3307 ft 185 kts 339°
2026-05-06 18:58 38.24500 -85.77351 3641 ft 191 kts 321°
2026-05-06 18:59 38.25523 -85.78544 3846 ft 205 kts 317°
2026-05-06 18:59 38.26651 -85.79725 4188 ft 217 kts 323°
2026-05-06 18:59 38.27983 -85.80696 4659 ft 224 kts 337°
2026-05-06 18:59 38.29536 -85.81095 5112 ft 234 kts 356°
2026-05-06 19:00 38.31244 -85.80769 5074 ft 271 kts 19°
2026-05-06 19:00 38.32853 -85.79503 5779 ft 274 kts 44°
2026-05-06 19:00 38.33884 -85.77515 6558 ft 275 kts 70°
2026-05-06 19:00 38.34174 -85.75924 6655 ft 290 kts 86°
2026-05-06 19:01 38.33612 -85.72584 7401 ft 292 kts 120°
2026-05-06 19:01 38.32729 -85.70244 7957 ft 300 kts 118°
2026-05-06 19:01 38.31891 -85.67794 8449 ft 310 kts 117°
2026-05-06 19:01 38.30940 -85.65314 8925 ft 314 kts 133°
2026-05-06 19:02 38.29413 -85.63434 9547 ft 304 kts 152°
2026-05-06 19:02 38.27694 -85.61843 10196 ft 307 kts 152°
2026-05-06 19:02 38.25960 -85.60244 10815 ft 310 kts 153°
2026-05-06 19:02 38.24203 -85.58652 11351 ft 317 kts 153°
2026-05-06 19:03 38.22421 -85.56799 11640 ft 337 kts 148°
2026-05-06 19:03 38.20558 -85.54870 11871 ft 356 kts 149°
2026-05-06 19:03 38.18620 -85.52851 12175 ft 372 kts 148°
2026-05-06 19:03 38.16578 -85.50726 12550 ft 386 kts 148°
2026-05-06 19:04 38.14473 -85.48527 13099 ft 395 kts 148°
2026-05-06 19:04 38.12350 -85.46310 13816 ft 398 kts 148°
2026-05-06 19:04 38.10207 -85.44080 14404 ft 404 kts 148°
2026-05-06 19:04 38.08027 -85.41809 15003 ft 410 kts 149°
2026-05-06 19:05 38.05805 -85.39497 15697 ft 413 kts 149°
2026-05-06 19:05 38.03578 -85.37186 16259 ft 419 kts 149°
2026-05-06 19:05 38.01326 -85.34843 16984 ft 419 kts 150°
2026-05-06 19:05 37.99067 -85.32500 17453 ft 427 kts 149°
2026-05-06 19:06 37.96938 -85.29730 17883 ft 448 kts 134°
2026-05-06 19:06 37.95325 -85.26341 18476 ft 462 kts 120°
2026-05-06 19:06 37.94237 -85.22467 18949 ft 475 kts 108°
2026-05-06 19:06 37.93610 -85.18298 19418 ft 484 kts 102°
2026-05-06 19:07 37.93044 -85.14159 19933 ft 486 kts 105°
2026-05-06 19:07 37.92614 -85.11339 20215 ft 490 kts 105°
2026-05-06 19:07 37.91956 -85.05620 20791 ft 501 kts 95°
2026-05-06 19:07 37.92041 -85.01150 21221 ft 508 kts 85°
2026-05-06 19:08 37.92422 -84.96694 21613 ft 515 kts 86°
2026-05-06 19:08 37.92798 -84.92219 22092 ft 518 kts 85°
2026-05-06 19:08 37.93192 -84.87685 22492 ft 524 kts 85°
2026-05-06 19:08 37.93591 -84.83117 22910 ft 528 kts 85°
2026-05-06 19:09 37.93995 -84.78487 23325 ft 533 kts 85°
2026-05-06 19:09 37.94405 -84.73778 23833 ft 535 kts 85°
2026-05-06 19:09 37.94805 -84.69157 24288 ft 539 kts 85°
2026-05-06 19:09 37.95215 -84.64425 24713 ft 543 kts 85°
2026-05-06 19:10 37.95628 -84.59609 25099 ft 548 kts 85°
2026-05-06 19:10 37.96052 -84.54842 25636 ft 549 kts 82°
2026-05-06 19:10 37.96815 -84.50078 25973 ft 555 kts 72°
2026-05-06 19:10 37.98106 -84.45476 26412 ft 555 kts 62°
2026-05-06 19:11 37.99869 -84.41174 26850 ft 553 kts 53°
2026-05-06 19:11 38.01907 -84.37095 27301 ft 554 kts 52°
2026-05-06 19:11 38.03984 -84.32922 27642 ft 559 kts 53°
2026-05-06 19:11 38.06062 -84.28770 27974 ft 562 kts 53°
2026-05-06 19:12 38.08143 -84.24593 28428 ft 563 kts 53°
2026-05-06 19:12 38.10238 -84.20394 28826 ft 566 kts 52°
2026-05-06 19:12 38.12349 -84.16167 29113 ft 571 kts 53°
2026-05-06 19:12 38.14468 -84.11904 29493 ft 573 kts 52°
2026-05-06 19:13 38.16584 -84.07649 29862 ft 576 kts 53°
2026-05-06 19:13 38.18746 -84.03299 30096 ft 581 kts 52°
2026-05-06 19:13 38.20874 -83.99003 30522 ft 582 kts 52°
2026-05-06 19:13 38.23042 -83.94630 30745 ft 587 kts 52°
2026-05-06 19:14 38.25213 -83.90240 31088 ft 589 kts 52°
2026-05-06 19:14 38.27400 -83.85810 31374 ft 592 kts 52°
2026-05-06 19:14 38.29579 -83.81390 31872 ft 590 kts 52°
2026-05-06 19:14 38.31753 -83.76976 32204 ft 592 kts 52°
2026-05-06 19:15 38.33924 -83.72564 32569 ft 592 kts 52°
2026-05-06 19:15 38.36101 -83.68134 32922 ft 592 kts 52°
2026-05-06 19:15 38.38282 -83.63683 33364 ft 590 kts 52°
2026-05-06 19:15 38.40456 -83.59246 33668 ft 592 kts 51°
2026-05-06 19:16 38.42611 -83.54841 34117 ft 591 kts 51°
2026-05-06 19:16 38.44785 -83.50391 34487 ft 589 kts 51°
2026-05-06 19:16 38.46922 -83.46009 34985 ft 585 kts 51°
2026-05-06 19:17 38.51195 -83.37234 34970 ft 583 kts 51°
2026-05-06 19:17 38.55483 -83.28409 34934 ft 586 kts 52°
2026-05-06 19:18 38.59766 -83.19564 34938 ft 586 kts 51°
2026-05-06 19:18 38.64048 -83.10694 34936 ft 587 kts 51°
2026-05-06 19:19 38.68292 -83.01884 34944 ft 586 kts 51°
2026-05-06 19:19 38.72538 -82.93043 34945 ft 585 kts 51°
2026-05-06 19:20 38.76798 -82.84152 34959 ft 589 kts 51°
2026-05-06 19:20 38.81056 -82.75235 34960 ft 586 kts 51°
2026-05-06 19:21 38.85298 -82.66325 34947 ft 585 kts 52°
2026-05-06 19:21 38.89496 -82.57486 34956 ft 584 kts 52°
2026-05-06 19:22 38.93727 -82.48559 34970 ft 587 kts 51°
2026-05-06 19:22 38.97944 -82.39629 34961 ft 585 kts 52°
2026-05-06 19:23 39.02126 -82.30745 34924 ft 586 kts 53°
2026-05-06 19:23 39.06351 -82.21754 34930 ft 588 kts 52°
2026-05-06 19:24 39.10530 -82.12829 34925 ft 584 kts 52°
2026-05-06 19:24 39.14719 -82.03858 34923 ft 584 kts 52°
2026-05-06 19:25 39.18892 -81.94898 34919 ft 585 kts 52°
2026-05-06 19:25 39.23053 -81.85938 34919 ft 584 kts 52°
2026-05-06 19:26 39.27197 -81.76994 34925 ft 584 kts 52°
2026-05-06 19:26 39.31369 -81.67963 34932 ft 589 kts 52°
2026-05-06 19:27 39.35522 -81.58940 34940 ft 587 kts 52°
2026-05-06 19:27 39.39666 -81.49907 34938 ft 583 kts 52°
2026-05-06 19:28 39.43775 -81.40936 34935 ft 585 kts 52°
2026-05-06 19:28 39.47926 -81.31848 34911 ft 587 kts 53°
2026-05-06 19:29 39.52038 -81.22803 34900 ft 585 kts 53°
2026-05-06 19:29 39.56167 -81.13710 34900 ft 584 kts 52°
2026-05-06 19:30 39.60268 -81.04652 34903 ft 587 kts 53°
2026-05-06 19:30 39.64377 -80.95541 34908 ft 586 kts 52°
2026-05-06 19:31 39.68448 -80.86490 34912 ft 581 kts 53°
2026-05-06 19:31 39.74531 -80.72929 34921 ft 585 kts 53°
2026-05-06 19:32 39.78640 -80.63730 34919 ft 588 kts 53°
2026-05-06 19:32 39.82717 -80.54572 34919 ft 587 kts 53°
2026-05-06 19:33 39.86774 -80.45429 34934 ft 584 kts 52°
2026-05-06 19:33 39.90810 -80.36314 34938 ft 583 kts 52°
2026-05-06 19:34 39.94849 -80.27165 34912 ft 584 kts 53°
2026-05-06 19:34 39.98867 -80.18037 34912 ft 585 kts 54°
2026-05-06 19:35 40.02911 -80.08819 34920 ft 583 kts 53°
2026-05-06 19:35 40.06913 -79.99670 34909 ft 584 kts 54°
2026-05-06 19:36 40.10932 -79.90458 34912 ft 583 kts 53°
2026-05-06 19:36 40.14932 -79.81265 34917 ft 583 kts 53°
2026-05-06 19:37 40.18906 -79.72094 34927 ft 582 kts 54°
2026-05-06 19:37 40.22244 -79.64380 34929 ft 584 kts 53°
2026-05-06 19:38 40.26867 -79.53654 34930 ft 583 kts 54°
2026-05-06 19:38 40.30822 -79.44441 34931 ft 579 kts 53°
2026-05-06 19:39 40.34767 -79.35246 34933 ft 581 kts 54°
2026-05-06 19:39 40.38652 -79.26144 34903 ft 583 kts 54°
2026-05-06 19:40 40.42586 -79.16903 34896 ft 579 kts 54°
2026-05-06 19:40 40.46501 -79.07684 34894 ft 581 kts 55°
2026-05-06 19:41 40.50437 -78.98383 34897 ft 584 kts 54°
2026-05-06 19:41 40.54346 -78.89114 34890 ft 580 kts 54°
2026-05-06 19:42 40.58219 -78.79909 34893 ft 580 kts 54°
2026-05-06 19:42 40.62107 -78.70642 34888 ft 581 kts 54°
2026-05-06 19:43 40.66009 -78.61308 34881 ft 581 kts 54°
2026-05-06 19:43 40.69870 -78.52044 34867 ft 580 kts 54°
2026-05-06 19:44 40.73724 -78.42770 34869 ft 580 kts 54°
2026-05-06 19:44 40.77602 -78.33403 34850 ft 580 kts 55°
2026-05-06 19:45 40.81437 -78.24116 34834 ft 578 kts 55°
2026-05-06 19:45 40.85270 -78.14809 34846 ft 581 kts 55°
2026-05-06 19:46 40.89101 -78.05470 34850 ft 579 kts 55°
2026-05-06 19:46 40.93330 -77.96503 34874 ft 565 kts 42°
2026-05-06 19:47 40.98486 -77.88792 34844 ft 562 kts 39°
2026-05-06 19:47 41.03625 -77.81043 34853 ft 562 kts 40°
2026-05-06 19:48 41.08774 -77.73209 34852 ft 566 kts 40°
2026-05-06 19:48 41.13891 -77.65380 34849 ft 562 kts 40°
2026-05-06 19:49 41.18991 -77.57563 34847 ft 562 kts 40°
2026-05-06 19:49 41.24081 -77.49740 34849 ft 564 kts 40°
2026-05-06 19:50 41.29216 -77.41822 34857 ft 566 kts 40°
2026-05-06 19:50 41.34332 -77.33912 34856 ft 563 kts 41°
2026-05-06 19:51 41.39390 -77.26072 34834 ft 562 kts 41°
2026-05-06 19:51 41.44475 -77.18172 34826 ft 563 kts 41°
2026-05-06 19:52 41.49578 -77.10224 34829 ft 566 kts 41°
2026-05-06 19:52 41.54666 -77.02273 34822 ft 565 kts 41°
2026-05-06 19:53 41.59739 -76.94326 34826 ft 563 kts 41°
2026-05-06 19:53 41.64787 -76.86400 34827 ft 563 kts 41°
2026-05-06 19:54 41.69877 -76.78386 34833 ft 563 kts 41°
2026-05-06 19:54 41.74925 -76.70418 34847 ft 564 kts 42°
2026-05-06 19:55 41.79968 -76.62434 34847 ft 564 kts 42°
2026-05-06 19:55 41.85032 -76.54393 34852 ft 564 kts 41°
2026-05-06 19:56 41.90042 -76.46420 34863 ft 562 kts 42°
2026-05-06 19:56 41.95092 -76.38361 34855 ft 562 kts 42°
2026-05-06 19:57 42.00103 -76.30344 34832 ft 565 kts 43°
2026-05-06 19:57 42.05138 -76.22267 34827 ft 563 kts 43°
2026-05-06 19:58 42.10133 -76.14231 34824 ft 561 kts 43°
2026-05-06 19:58 42.15122 -76.06180 34752 ft 558 kts 43°
2026-05-06 19:59 42.20097 -75.98138 34827 ft 562 kts 43°
2026-05-06 19:59 42.25071 -75.90069 34829 ft 562 kts 43°
2026-05-06 20:00 42.30037 -75.81991 34826 ft 559 kts 43°
2026-05-06 20:00 42.35004 -75.73891 34829 ft 560 kts 43°
2026-05-06 20:01 42.39935 -75.65832 34839 ft 560 kts 44°
2026-05-06 20:01 42.44878 -75.57725 34834 ft 561 kts 44°
2026-05-06 20:02 42.49823 -75.49596 34834 ft 559 kts 44°
2026-05-06 20:02 42.54745 -75.41479 34828 ft 559 kts 44°
2026-05-06 20:03 42.59658 -75.33359 34822 ft 559 kts 45°
2026-05-06 20:03 42.64595 -75.25176 34802 ft 560 kts 45°
2026-05-06 20:04 42.69505 -75.17013 34797 ft 559 kts 45°
2026-05-06 20:04 42.74382 -75.08881 34787 ft 556 kts 45°
2026-05-06 20:05 42.79256 -75.00736 34793 ft 557 kts 45°
2026-05-06 20:05 42.84125 -74.92576 34809 ft 557 kts 45°
2026-05-06 20:06 42.88986 -74.84405 34826 ft 557 kts 45°
2026-05-06 20:06 42.93862 -74.76189 34823 ft 558 kts 46°
2026-05-06 20:07 42.98694 -74.68022 34824 ft 557 kts 46°
2026-05-06 20:07 43.03543 -74.59802 34821 ft 553 kts 46°
2026-05-06 20:08 43.08362 -74.51615 34807 ft 555 kts 46°
2026-05-06 20:08 43.13177 -74.43403 34805 ft 553 kts 46°
2026-05-06 20:09 43.17974 -74.35207 34791 ft 551 kts 46°
2026-05-06 20:09 43.22738 -74.27044 34793 ft 552 kts 47°
2026-05-06 20:10 43.27521 -74.18825 34786 ft 553 kts 48°
2026-05-06 20:10 43.32282 -74.10619 34798 ft 550 kts 48°
2026-05-06 20:11 43.37050 -74.02377 34790 ft 551 kts 48°
2026-05-06 20:11 43.41753 -73.94228 34787 ft 548 kts 48°
2026-05-06 20:12 43.46486 -73.85999 34791 ft 547 kts 48°
2026-05-06 20:12 43.51178 -73.77823 34789 ft 548 kts 48°
2026-05-06 20:13 43.55885 -73.69597 34799 ft 547 kts 49°
2026-05-06 20:13 43.60563 -73.61396 34797 ft 545 kts 49°
2026-05-06 20:14 43.65243 -73.53172 34788 ft 545 kts 49°
2026-05-06 20:14 43.69908 -73.44949 34802 ft 546 kts 49°
2026-05-06 20:15 43.74553 -73.36739 34801 ft 543 kts 49°
2026-05-06 20:15 43.79199 -73.28503 34791 ft 540 kts 50°
2026-05-06 20:16 43.83804 -73.20317 34794 ft 540 kts 50°
2026-05-06 20:16 43.88376 -73.12168 34785 ft 540 kts 50°
2026-05-06 20:17 43.92964 -73.03969 34790 ft 540 kts 50°
2026-05-06 20:17 43.97548 -72.95750 34788 ft 540 kts 50°
2026-05-06 20:18 44.02139 -72.87497 34798 ft 539 kts 50°
2026-05-06 20:18 44.06681 -72.79308 34803 ft 539 kts 50°
2026-05-06 20:19 44.11231 -72.71083 34804 ft 538 kts 51°
2026-05-06 20:19 44.15776 -72.62840 34804 ft 538 kts 50°
2026-05-06 20:20 44.20324 -72.54575 34820 ft 540 kts 51°
2026-05-06 20:20 44.24874 -72.46275 34796 ft 539 kts 51°
2026-05-06 20:21 44.29427 -72.37952 34780 ft 539 kts 51°
2026-05-06 20:21 44.33973 -72.29617 34770 ft 541 kts 52°
2026-05-06 20:22 44.38487 -72.21312 34764 ft 539 kts 52°
2026-05-06 20:22 44.43006 -72.12976 34759 ft 539 kts 52°
2026-05-06 20:23 44.47528 -72.04612 34775 ft 539 kts 52°
2026-05-06 20:23 44.52203 -71.96519 34794 ft 537 kts 45°
2026-05-06 20:24 44.57355 -71.88897 34784 ft 539 kts 46°
2026-05-06 20:24 44.62445 -71.81242 34785 ft 537 kts 46°
2026-05-06 20:25 44.67490 -71.73611 34778 ft 537 kts 46°
2026-05-06 20:25 44.72543 -71.65937 34769 ft 535 kts 46°
2026-05-06 20:26 44.77599 -71.58237 34757 ft 535 kts 47°
2026-05-06 20:26 44.82635 -71.50539 34766 ft 537 kts 46°
2026-05-06 20:27 44.87657 -71.42847 34758 ft 537 kts 47°
2026-05-06 20:27 44.92707 -71.35088 34767 ft 535 kts 47°
2026-05-06 20:28 44.97733 -71.27345 34758 ft 537 kts 49°
2026-05-06 20:28 45.02729 -71.19627 34762 ft 536 kts 49°
2026-05-06 20:29 45.07770 -71.11816 34771 ft 538 kts 49°
2026-05-06 20:29 45.12796 -71.04007 34752 ft 536 kts 49°
2026-05-06 20:30 45.20306 -70.92299 34758 ft 539 kts 49°
2026-05-06 20:31 45.25336 -70.84430 34760 ft 538 kts 50°
2026-05-06 20:31 45.30343 -70.76573 34744 ft 538 kts 50°
2026-05-06 20:32 45.35335 -70.68717 34749 ft 539 kts 49°
2026-05-06 20:32 45.40348 -70.60805 34757 ft 541 kts 49°
2026-05-06 20:33 45.45340 -70.52905 34762 ft 541 kts 49°
2026-05-06 20:33 45.50360 -70.44937 34769 ft 543 kts 50°
2026-05-06 20:34 45.55421 -70.36883 34768 ft 543 kts 50°
2026-05-06 20:34 45.60445 -70.28862 34765 ft 544 kts 50°
2026-05-06 20:35 45.65438 -70.20868 34762 ft 542 kts 50°
2026-05-06 20:35 45.70470 -70.12787 34774 ft 545 kts 50°
2026-05-06 20:36 45.75481 -70.04718 34761 ft 543 kts 50°
2026-05-06 20:36 45.80455 -69.96687 34771 ft 542 kts 50°
2026-05-06 20:37 45.85456 -69.88581 34774 ft 545 kts 50°
2026-05-06 20:37 45.90470 -69.80437 34789 ft 547 kts 50°
2026-05-06 20:38 45.95470 -69.72290 34790 ft 547 kts 50°
2026-05-06 20:38 46.00494 -69.64079 34786 ft 547 kts 50°
2026-05-06 20:39 46.05495 -69.55881 34786 ft 547 kts 50°
2026-05-06 20:39 46.10490 -69.47673 34780 ft 547 kts 50°
2026-05-06 20:40 46.15474 -69.39453 34768 ft 547 kts 50°
2026-05-06 20:40 46.20486 -69.31164 34759 ft 547 kts 51°
2026-05-06 20:41 46.25471 -69.22893 34757 ft 547 kts 51°
2026-05-06 20:41 46.30441 -69.14625 34759 ft 548 kts 51°
2026-05-06 20:42 46.35426 -69.06304 34764 ft 548 kts 51°
2026-05-06 20:42 46.40371 -68.98024 34758 ft 548 kts 50°
2026-05-06 20:43 46.45339 -68.89683 34759 ft 550 kts 51°
2026-05-06 20:43 46.50307 -68.81315 34758 ft 549 kts 50°
2026-05-06 20:44 46.55276 -68.72918 34762 ft 549 kts 51°
2026-05-06 20:44 46.60244 -68.64500 34778 ft 550 kts 51°
2026-05-06 20:45 46.65170 -68.56125 34775 ft 550 kts 50°
2026-05-06 20:45 46.70119 -68.47691 34791 ft 549 kts 51°
2026-05-06 20:46 46.74946 -68.39436 34808 ft 550 kts 50°
2026-05-06 20:46 46.79920 -68.30902 34796 ft 553 kts 51°
2026-05-06 20:47 46.84874 -68.22375 34785 ft 548 kts 51°
2026-05-06 20:47 46.89788 -68.13895 34805 ft 549 kts 51°
2026-05-06 20:48 46.94688 -68.05406 34797 ft 549 kts 51°
2026-05-06 20:48 46.99624 -67.96833 34801 ft 551 kts 51°
2026-05-06 20:49 47.04512 -67.88315 34803 ft 550 kts 52°
2026-05-06 20:49 47.09432 -67.79718 34799 ft 550 kts 52°
2026-05-06 20:50 47.14328 -67.71132 34786 ft 550 kts 52°
2026-05-06 20:50 47.19237 -67.62495 34786 ft 550 kts 52°
2026-05-06 20:51 47.24118 -67.53881 34788 ft 551 kts 51°
2026-05-06 20:51 47.28999 -67.45239 34784 ft 551 kts 51°
2026-05-06 20:52 47.33876 -67.36581 34784 ft 552 kts 51°
2026-05-06 20:52 47.38721 -67.27869 34774 ft 550 kts 53°
2026-05-06 20:53 47.43474 -67.19011 34774 ft 552 kts 53°
2026-05-06 20:53 47.48231 -67.10133 34783 ft 554 kts 53°
2026-05-06 20:54 47.53000 -67.01208 34786 ft 552 kts 53°
2026-05-06 20:54 47.57730 -66.92326 34788 ft 553 kts 53°
2026-05-06 20:55 47.62485 -66.83364 34780 ft 554 kts 54°
2026-05-06 20:55 47.67207 -66.74435 34780 ft 553 kts 54°
2026-05-06 20:56 47.71933 -66.65474 34783 ft 553 kts 53°
2026-05-06 20:56 47.76659 -66.56479 34783 ft 553 kts 53°
2026-05-06 20:57 47.81335 -66.47553 34790 ft 554 kts 53°
2026-05-06 20:57 47.86054 -66.38517 34796 ft 553 kts 53°
2026-05-06 20:58 47.90758 -66.29474 34784 ft 551 kts 54°
2026-05-06 20:58 47.95419 -66.20487 34800 ft 553 kts 54°
2026-05-06 20:59 48.00122 -66.11387 34813 ft 554 kts 54°
2026-05-06 20:59 48.04779 -66.02349 34821 ft 552 kts 53°
2026-05-06 21:00 48.09456 -65.93241 34828 ft 553 kts 53°
2026-05-06 21:00 48.14160 -65.84051 34808 ft 553 kts 53°
2026-05-06 21:01 48.18808 -65.74933 34812 ft 552 kts 54°
2026-05-06 21:01 48.23457 -65.65791 34820 ft 553 kts 53°
2026-05-06 21:02 48.28095 -65.56634 34806 ft 553 kts 53°
2026-05-06 21:02 48.32721 -65.47471 34809 ft 553 kts 53°
2026-05-06 21:03 48.37327 -65.38315 34809 ft 552 kts 53°
2026-05-06 21:03 48.41930 -65.29139 34802 ft 552 kts 54°
2026-05-06 21:04 48.46527 -65.19936 34803 ft 553 kts 54°
2026-05-06 21:04 48.51121 -65.10713 34804 ft 552 kts 54°
2026-05-06 21:05 48.55728 -65.01431 34817 ft 552 kts 54°
2026-05-06 21:05 48.60289 -64.92211 34825 ft 553 kts 54°
2026-05-06 21:06 48.64872 -64.82913 34831 ft 552 kts 53°
2026-05-06 21:06 48.69443 -64.73609 34839 ft 552 kts 54°
2026-05-06 21:07 48.74021 -64.64258 34852 ft 552 kts 54°
2026-05-06 21:07 48.78565 -64.54944 34858 ft 553 kts 53°
2026-05-06 21:08 48.83100 -64.45617 34861 ft 551 kts 53°
2026-05-06 21:08 48.87632 -64.36261 34866 ft 551 kts 53°
2026-05-06 21:09 48.92147 -64.26910 34859 ft 551 kts 54°
2026-05-06 21:09 48.96659 -64.17532 34866 ft 552 kts 54°
2026-05-06 21:10 49.01177 -64.08108 34872 ft 553 kts 54°
2026-05-06 21:10 49.05678 -63.98687 34875 ft 552 kts 54°
2026-05-06 21:11 49.10178 -63.89235 34880 ft 553 kts 54°
2026-05-06 21:11 49.14720 -63.79661 34872 ft 553 kts 54°
2026-05-06 21:12 49.19188 -63.70208 34878 ft 552 kts 54°
2026-05-06 21:12 49.23672 -63.60688 34886 ft 553 kts 54°
2026-05-06 21:13 49.28123 -63.51207 34886 ft 554 kts 54°
2026-05-06 21:13 49.32660 -63.41506 34886 ft 553 kts 54°
2026-05-06 21:14 49.37114 -63.31946 34878 ft 552 kts 55°
2026-05-06 21:14 49.41574 -63.22342 34877 ft 554 kts 55°
2026-05-06 21:15 49.46005 -63.12763 34875 ft 553 kts 56°
2026-05-06 21:15 49.50415 -63.03199 34882 ft 552 kts 55°
2026-05-06 21:16 49.54838 -62.93571 34891 ft 553 kts 56°
2026-05-06 21:16 49.59264 -62.83901 34887 ft 552 kts 56°
2026-05-06 21:17 49.63659 -62.74258 34895 ft 551 kts 54°
2026-05-06 21:17 49.68046 -62.64604 34898 ft 553 kts 54°
2026-05-06 21:18 49.72434 -62.54913 34898 ft 555 kts 55°
2026-05-06 21:18 49.76835 -62.45152 34902 ft 552 kts 54°
2026-05-06 21:19 49.81205 -62.35438 34904 ft 553 kts 54°
2026-05-06 21:19 49.85556 -62.25715 34891 ft 551 kts 55°
2026-05-06 21:20 49.89972 -62.15818 34890 ft 550 kts 55°
2026-05-06 21:20 49.94309 -62.06059 34888 ft 551 kts 55°
2026-05-06 21:21 49.98602 -61.96365 34886 ft 550 kts 55°
2026-05-06 21:21 50.02918 -61.86582 34906 ft 551 kts 55°
2026-05-06 21:22 50.07220 -61.76795 34898 ft 549 kts 55°
2026-05-06 21:22 50.11516 -61.66985 34899 ft 549 kts 55°
2026-05-06 21:23 50.15810 -61.57144 34906 ft 551 kts 56°
2026-05-06 21:23 50.20101 -61.47272 34901 ft 552 kts 55°
2026-05-06 21:24 50.24385 -61.37384 34901 ft 551 kts 55°
2026-05-06 21:24 50.28653 -61.27490 34902 ft 548 kts 56°
2026-05-06 21:25 50.32860 -61.17703 34902 ft 547 kts 56°
2026-05-06 21:25 50.37109 -61.07778 34914 ft 548 kts 56°
2026-05-06 21:26 50.41328 -60.97884 34910 ft 547 kts 56°
2026-05-06 21:26 50.45549 -60.87956 34915 ft 546 kts 56°
2026-05-06 21:27 50.49775 -60.77974 34916 ft 549 kts 56°
2026-05-06 21:27 50.53965 -60.68041 34912 ft 546 kts 56°
2026-05-06 21:28 50.58116 -60.58159 34921 ft 546 kts 56°
2026-05-06 21:28 50.62302 -60.48163 34915 ft 547 kts 55°
2026-05-06 21:29 50.66434 -60.38254 34920 ft 546 kts 55°
2026-05-06 21:29 50.70587 -60.28258 34909 ft 545 kts 57°
2026-05-06 21:30 50.74717 -60.18277 34924 ft 546 kts 57°
2026-05-06 21:30 50.78849 -60.08255 34912 ft 547 kts 56°
2026-05-06 21:31 50.82963 -59.98238 34917 ft 545 kts 56°
2026-05-06 21:31 50.87069 -59.88199 34916 ft 543 kts 56°
2026-05-06 21:32 50.91132 -59.78227 34925 ft 543 kts 56°
2026-05-06 21:32 50.97237 -59.63174 34936 ft 542 kts 56°
2026-05-06 21:33 51.01322 -59.53054 34932 ft 541 kts 56°
2026-05-06 21:33 51.05351 -59.43028 34928 ft 541 kts 56°
2026-05-06 21:34 51.09365 -59.33009 34923 ft 541 kts 57°
2026-05-06 21:34 51.13418 -59.22847 34913 ft 542 kts 57°
2026-05-06 21:35 51.17417 -59.12783 34922 ft 541 kts 57°
2026-05-06 21:35 51.21413 -59.02686 34918 ft 542 kts 57°
2026-05-06 21:36 51.25415 -58.92536 34922 ft 541 kts 56°
2026-05-06 21:36 51.29393 -58.82410 34924 ft 541 kts 57°
2026-05-06 21:37 51.33366 -58.72249 34934 ft 543 kts 56°
2026-05-06 21:37 51.37356 -58.62016 34924 ft 542 kts 57°
2026-05-06 21:38 51.41294 -58.51863 34930 ft 540 kts 57°
2026-05-06 21:38 51.45256 -58.41614 34941 ft 540 kts 56°
2026-05-06 21:39 51.49157 -58.31490 34934 ft 541 kts 58°
2026-05-06 21:39 51.53164 -58.21036 34925 ft 540 kts 58°
2026-05-06 21:40 51.57076 -58.10789 34927 ft 541 kts 58°
2026-05-06 21:40 51.60979 -58.00532 34925 ft 542 kts 57°
2026-05-06 21:41 51.64886 -57.90221 34921 ft 542 kts 58°
2026-05-06 21:41 51.68788 -57.79878 34924 ft 541 kts 58°
2026-05-06 21:42 51.72661 -57.69569 34922 ft 541 kts 57°
2026-05-06 21:42 51.76524 -57.59250 34909 ft 539 kts 57°
2026-05-06 21:43 51.80371 -57.48932 34925 ft 538 kts 57°
2026-05-06 21:43 51.84213 -57.38589 34930 ft 539 kts 57°
2026-05-06 21:44 51.88047 -57.28217 34924 ft 538 kts 57°
2026-05-06 21:44 51.91874 -57.17823 34931 ft 538 kts 57°
2026-05-06 21:45 51.95663 -57.07497 34929 ft 537 kts 58°
2026-05-06 21:45 51.99460 -56.97099 34934 ft 537 kts 57°
2026-05-06 21:46 52.03279 -56.86607 34944 ft 536 kts 58°
2026-05-06 21:46 52.07048 -56.76198 34952 ft 537 kts 57°
2026-05-06 21:47 52.10819 -56.65744 34949 ft 536 kts 57°
2026-05-06 21:47 52.14582 -56.55277 34938 ft 534 kts 58°
2026-05-06 21:48 52.18312 -56.44847 34932 ft 534 kts 58°
2026-05-06 21:48 52.21973 -56.34575 34939 ft 536 kts 59°
2026-05-06 21:49 52.25679 -56.24125 34929 ft 535 kts 59°
2026-05-06 21:49 52.29398 -56.13607 34936 ft 535 kts 58°
2026-05-06 21:50 52.33077 -56.03151 34939 ft 534 kts 58°
2026-05-06 21:50 52.36762 -55.92639 34934 ft 537 kts 59°
2026-05-06 21:51 52.40375 -55.81950 34936 ft 537 kts 62°
2026-05-06 21:51 52.43749 -55.71153 34935 ft 536 kts 61°
2026-05-06 21:52 52.47100 -55.60307 34937 ft 535 kts 61°
2026-05-06 21:52 52.50431 -55.49445 34933 ft 535 kts 61°
2026-05-06 21:53 52.53760 -55.38531 34939 ft 536 kts 62°
2026-05-06 21:53 52.57073 -55.27614 34925 ft 533 kts 62°
2026-05-06 21:54 52.60365 -55.16714 34931 ft 534 kts 63°
2026-05-06 21:54 52.63641 -55.05817 34933 ft 532 kts 62°
2026-05-06 21:55 52.66890 -54.94962 34936 ft 534 kts 62°
2026-05-06 21:55 52.70147 -54.84034 34934 ft 535 kts 62°
2026-05-06 21:56 52.73392 -54.73087 34934 ft 531 kts 62°
2026-05-06 21:56 52.76606 -54.62205 34932 ft 531 kts 62°
2026-05-06 21:57 52.79839 -54.51204 34938 ft 533 kts 62°
2026-05-06 21:57 52.82513 -54.42063 34939 ft 532 kts 62°
2026-05-06 21:58 52.85234 -54.32727 34946 ft 531 kts 64°
2026-05-06 21:58 52.88412 -54.21780 34937 ft 530 kts 63°
2026-05-06 21:59 52.91575 -54.10836 34935 ft 529 kts 63°
2026-05-06 21:59 52.94729 -53.99864 34934 ft 529 kts 64°
2026-05-06 22:00 52.97891 -53.88815 34935 ft 531 kts 63°
2026-05-06 22:00 53.01016 -53.77841 34940 ft 529 kts 63°
2026-05-06 22:01 53.04147 -53.66801 34949 ft 528 kts 63°
2026-05-06 22:01 53.07250 -53.55803 34955 ft 529 kts 63°
2026-05-06 22:02 53.10346 -53.44778 34956 ft 528 kts 63°
2026-05-06 22:02 53.13435 -53.33733 34952 ft 528 kts 64°
2026-05-06 22:03 53.16514 -53.22665 34947 ft 529 kts 64°
2026-05-06 22:03 53.19581 -53.11586 34966 ft 528 kts 63°
2026-05-06 22:04 53.22638 -53.00496 34970 ft 528 kts 63°
2026-05-06 22:04 53.25663 -52.89464 34968 ft 528 kts 63°
2026-05-06 22:05 53.28708 -52.78313 34976 ft 527 kts 63°
2026-05-06 22:05 53.31716 -52.67237 34975 ft 526 kts 63°
2026-05-06 22:06 53.34712 -52.56159 34982 ft 527 kts 63°
2026-05-06 22:06 53.37733 -52.44925 34984 ft 527 kts 63°
2026-05-06 22:07 53.40698 -52.33849 34979 ft 526 kts 64°
2026-05-06 22:07 53.43672 -52.22682 34975 ft 524 kts 64°
2026-05-06 22:08 53.46616 -52.11586 34975 ft 525 kts 64°
2026-05-06 22:08 53.49566 -52.00393 34972 ft 524 kts 64°
2026-05-06 22:09 53.52481 -51.89295 34984 ft 524 kts 64°
2026-05-06 22:09 53.55392 -51.78149 34987 ft 523 kts 64°
2026-05-06 22:10 53.58300 -51.66964 34982 ft 525 kts 64°
2026-05-06 22:10 53.61198 -51.55758 34986 ft 524 kts 64°
2026-05-06 22:11 53.64085 -51.44538 34987 ft 522 kts 63°
2026-05-06 22:11 53.66951 -51.33349 34991 ft 521 kts 64°
2026-05-06 22:12 53.69791 -51.22199 34984 ft 522 kts 64°
2026-05-06 22:12 53.72633 -51.10991 34989 ft 519 kts 64°
2026-05-06 22:13 53.75440 -50.99862 34989 ft 520 kts 65°
2026-05-06 22:13 53.78254 -50.88650 34984 ft 521 kts 64°
2026-05-06 22:14 53.81060 -50.77413 34982 ft 520 kts 64°
2026-05-06 22:14 53.83864 -50.66128 34994 ft 521 kts 64°
2026-05-06 22:15 53.86647 -50.54866 35000 ft 521 kts 64°
2026-05-06 22:15 53.89410 -50.43633 35006 ft 520 kts 65°
2026-05-06 22:16 53.92171 -50.32349 34999 ft 521 kts 65°
2026-05-06 22:16 53.94929 -50.21018 35004 ft 519 kts 65°
2026-05-06 22:17 53.97665 -50.09715 35008 ft 520 kts 65°
2026-05-06 22:17 54.00081 -49.98211 35015 ft 522 kts 73°
2026-05-06 22:18 54.01907 -49.86327 35010 ft 521 kts 74°
2026-05-06 22:18 54.03640 -49.74485 35012 ft 521 kts 74°
2026-05-06 22:19 54.05351 -49.62519 35013 ft 520 kts 75°
2026-05-06 22:19 54.07028 -49.50617 35016 ft 521 kts 74°
2026-05-06 22:20 54.08694 -49.38688 35023 ft 518 kts 74°
2026-05-06 22:20 54.10337 -49.26815 35013 ft 517 kts 75°
2026-05-06 22:21 54.11964 -49.14963 35024 ft 518 kts 75°
2026-05-06 22:21 54.13585 -49.03068 35025 ft 517 kts 75°
2026-05-06 22:22 54.15187 -48.91213 35034 ft 516 kts 75°
2026-05-06 22:22 54.16789 -48.79250 35043 ft 516 kts 75°
2026-05-06 22:23 54.18360 -48.67425 35042 ft 514 kts 75°
2026-05-06 22:23 54.19925 -48.55559 35052 ft 515 kts 75°
2026-05-06 22:24 54.21485 -48.43631 35056 ft 515 kts 75°
2026-05-06 22:24 54.23027 -48.31745 35058 ft 516 kts 76°
2026-05-06 22:25 54.24565 -48.19783 35062 ft 514 kts 75°
2026-05-06 22:25 54.26075 -48.07937 35066 ft 516 kts 76°
2026-05-06 22:26 54.27583 -47.96012 35067 ft 516 kts 76°
2026-05-06 22:26 54.29082 -47.84043 35073 ft 515 kts 75°
2026-05-06 22:27 54.30565 -47.72110 35075 ft 515 kts 75°
2026-05-06 22:27 54.32041 -47.60133 35076 ft 516 kts 75°
2026-05-06 22:28 54.33501 -47.48173 35083 ft 516 kts 75°
2026-05-06 22:28 54.34952 -47.36184 35084 ft 516 kts 75°
2026-05-06 22:29 54.36390 -47.24204 35080 ft 515 kts 76°
2026-05-06 22:29 54.37807 -47.12286 35084 ft 513 kts 76°
2026-05-06 22:30 54.39218 -47.00300 35090 ft 513 kts 76°
2026-05-06 22:30 54.40617 -46.88327 35084 ft 514 kts 75°
2026-05-06 22:31 54.42000 -46.76374 35099 ft 514 kts 75°
2026-05-06 22:31 54.43370 -46.64406 35108 ft 513 kts 75°
2026-05-06 22:32 54.44733 -46.52416 35109 ft 512 kts 75°
2026-05-06 22:32 54.46074 -46.40494 35120 ft 513 kts 75°
2026-05-06 22:33 54.47416 -46.28457 35104 ft 512 kts 76°
2026-05-06 22:33 54.48733 -46.16519 35109 ft 512 kts 76°
2026-05-06 22:34 54.50044 -46.04525 35112 ft 510 kts 76°
2026-05-06 22:34 54.51335 -45.92596 35115 ft 511 kts 75°
2026-05-06 22:35 54.52615 -45.80654 35117 ft 510 kts 75°
2026-05-06 22:35 54.53882 -45.68729 35129 ft 511 kts 75°
2026-05-06 22:36 54.55140 -45.56746 35130 ft 509 kts 75°
2026-05-06 22:36 54.56387 -45.44778 35140 ft 510 kts 75°
2026-05-06 22:37 54.57617 -45.32826 35140 ft 511 kts 76°
2026-05-06 22:37 54.58845 -45.20785 35138 ft 511 kts 76°
2026-05-06 22:38 54.60053 -45.08805 35149 ft 510 kts 76°
2026-05-06 22:38 54.61254 -44.96793 35151 ft 511 kts 76°
2026-05-06 22:39 54.62442 -44.84764 35140 ft 511 kts 76°
2026-05-06 22:39 54.63614 -44.72769 35144 ft 507 kts 75°
2026-05-06 22:40 54.64766 -44.60862 35157 ft 507 kts 76°
2026-05-06 22:40 54.65913 -44.48868 35161 ft 507 kts 75°
2026-05-06 22:41 54.67594 -44.31060 35158 ft 502 kts 76°
2026-05-06 22:42 54.68699 -44.19183 35164 ft 502 kts 76°
2026-05-06 22:42 54.69794 -44.07287 35173 ft 500 kts 76°
2026-05-06 22:43 54.70866 -43.95520 35173 ft 498 kts 76°
2026-05-06 22:43 54.71924 -43.83763 35170 ft 497 kts 76°
2026-05-06 22:44 54.72973 -43.71987 35182 ft 495 kts 76°
2026-05-06 22:44 54.74003 -43.60286 35176 ft 494 kts 76°
2026-05-06 22:45 54.75017 -43.48619 35180 ft 492 kts 76°
2026-05-06 22:45 54.76015 -43.37004 35179 ft 489 kts 75°
2026-05-06 22:46 54.77004 -43.25380 35172 ft 488 kts 76°
2026-05-06 22:46 54.77975 -43.13839 35169 ft 489 kts 76°
2026-05-06 22:47 54.78933 -43.02273 35167 ft 483 kts 76°
2026-05-06 22:47 54.79869 -42.90876 35174 ft 482 kts 76°
2026-05-06 22:48 54.80799 -42.79407 35176 ft 483 kts 76°
2026-05-06 22:48 54.81719 -42.67910 35183 ft 481 kts 76°
2026-05-06 22:49 54.82624 -42.56472 35181 ft 478 kts 76°
2026-05-06 22:49 54.83507 -42.45182 35187 ft 478 kts 76°
2026-05-06 22:50 54.84390 -42.33747 35190 ft 479 kts 76°
2026-05-06 22:50 54.85254 -42.22380 35192 ft 476 kts 76°
2026-05-06 22:51 54.86106 -42.11056 35194 ft 474 kts 76°
2026-05-06 22:51 54.86944 -41.99788 35195 ft 475 kts 76°
2026-05-06 22:52 54.87772 -41.88490 35188 ft 474 kts 76°
2026-05-06 22:52 54.88591 -41.77174 35188 ft 474 kts 76°
2026-05-06 22:53 54.89399 -41.65861 35187 ft 473 kts 76°
2026-05-06 22:53 54.90193 -41.54580 35190 ft 473 kts 76°
2026-05-06 22:54 54.90980 -41.43248 35190 ft 474 kts 76°
2026-05-06 22:54 54.91751 -41.31994 35185 ft 470 kts 77°
2026-05-06 22:55 54.92515 -41.20698 35188 ft 472 kts 77°
2026-05-06 22:55 54.93262 -41.09481 35186 ft 471 kts 77°
2026-05-06 22:56 54.94005 -40.98175 35187 ft 472 kts 77°
2026-05-06 22:56 54.94735 -40.86910 35187 ft 472 kts 77°
2026-05-06 22:57 54.95458 -40.75563 35194 ft 472 kts 77°
2026-05-06 22:57 54.96167 -40.64283 35191 ft 472 kts 77°
2026-05-06 22:58 54.96869 -40.52948 35201 ft 474 kts 77°
2026-05-06 22:58 54.97558 -40.41635 35184 ft 474 kts 77°
2026-05-06 22:59 54.98239 -40.30275 35193 ft 476 kts 78°
2026-05-06 22:59 54.98915 -40.18823 35195 ft 476 kts 78°
2026-05-06 23:00 54.99578 -40.07391 35197 ft 474 kts 78°
2026-05-06 23:00 55.00355 -39.96096 35200 ft 469 kts 71°
2026-05-06 23:01 55.01921 -39.85925 35208 ft 469 kts 69°
2026-05-06 23:01 55.03543 -39.74976 35208 ft 468 kts 69°
2026-05-06 23:02 55.05104 -39.64111 35206 ft 465 kts 70°
2026-05-06 23:02 55.06655 -39.53129 35209 ft 468 kts 70°
2026-05-06 23:03 55.08188 -39.42157 35213 ft 468 kts 70°
2026-05-06 23:03 55.09712 -39.31155 35210 ft 467 kts 70°
2026-05-06 23:04 55.11222 -39.20168 35222 ft 468 kts 70°
2026-05-06 23:04 55.12720 -39.09173 35224 ft 467 kts 70°
2026-05-06 23:05 55.14210 -38.98173 35223 ft 468 kts 70°
2026-05-06 23:05 55.15687 -38.87179 35224 ft 466 kts 70°
2026-05-06 23:06 55.17149 -38.76213 35226 ft 465 kts 70°
2026-05-06 23:06 55.18599 -38.65266 35227 ft 466 kts 70°
2026-05-06 23:07 55.20052 -38.54205 35226 ft 467 kts 70°
2026-05-06 23:07 55.21481 -38.43245 35231 ft 467 kts 70°
2026-05-06 23:08 55.22914 -38.32175 35240 ft 468 kts 71°
2026-05-06 23:08 55.24336 -38.21086 35237 ft 468 kts 71°
2026-05-06 23:09 55.25750 -38.09998 35243 ft 468 kts 71°
2026-05-06 23:09 55.27157 -37.98862 35243 ft 468 kts 71°
2026-05-06 23:10 55.28547 -37.87781 35240 ft 469 kts 71°
2026-05-06 23:10 55.29933 -37.76629 35234 ft 467 kts 71°
2026-05-06 23:11 55.31302 -37.65539 35238 ft 468 kts 71°
2026-05-06 23:11 55.32659 -37.54461 35237 ft 469 kts 71°
2026-05-06 23:12 55.34014 -37.43287 35234 ft 467 kts 71°
2026-05-06 23:12 55.35348 -37.32216 35234 ft 468 kts 72°
2026-05-06 23:13 55.36687 -37.21018 35232 ft 470 kts 72°
2026-05-06 23:13 55.38009 -37.09849 35228 ft 469 kts 72°
2026-05-06 23:14 55.39323 -36.98663 35229 ft 471 kts 71°
2026-05-06 23:14 55.40642 -36.87339 35232 ft 472 kts 72°
2026-05-06 23:15 55.41931 -36.76163 35229 ft 470 kts 72°
2026-05-06 23:15 55.43224 -36.64877 35229 ft 471 kts 72°
2026-05-06 23:16 55.44494 -36.53685 35226 ft 470 kts 72°
2026-05-06 23:16 55.45760 -36.42426 35226 ft 470 kts 72°
2026-05-06 23:17 55.47013 -36.31194 35222 ft 471 kts 73°
2026-05-06 23:17 55.48267 -36.19858 35220 ft 473 kts 73°
2026-05-06 23:18 55.49506 -36.08533 35217 ft 473 kts 73°
2026-05-06 23:18 55.50742 -35.97147 35220 ft 473 kts 73°
2026-05-06 23:19 55.51960 -35.85828 35222 ft 475 kts 73°
2026-05-06 23:19 55.53175 -35.74418 35221 ft 474 kts 73°
2026-05-06 23:20 55.54378 -35.63016 35220 ft 474 kts 73°
2026-05-06 23:20 55.55567 -35.51648 35219 ft 473 kts 72°
2026-05-06 23:21 55.56747 -35.40251 35215 ft 472 kts 73°
2026-05-06 23:21 55.57915 -35.28872 35206 ft 473 kts 73°
2026-05-06 23:22 55.59076 -35.17455 35215 ft 474 kts 73°
2026-05-06 23:22 55.60222 -35.06055 35208 ft 474 kts 73°
2026-05-06 23:23 55.61338 -34.94853 35206 ft 476 kts 73°
2026-05-06 23:23 55.62469 -34.83389 35196 ft 475 kts 73°
2026-05-06 23:24 55.63590 -34.71905 35207 ft 475 kts 73°
2026-05-06 23:24 55.64701 -34.60419 35206 ft 475 kts 73°
2026-05-06 23:25 55.65798 -34.48954 35208 ft 474 kts 73°
2026-05-06 23:25 55.66879 -34.37535 35191 ft 474 kts 73°
2026-05-06 23:26 55.67956 -34.26054 35203 ft 476 kts 75°
2026-05-06 23:26 55.69030 -34.14467 35199 ft 476 kts 75°
2026-05-06 23:27 55.70089 -34.02927 35197 ft 476 kts 75°
2026-05-06 23:27 55.71135 -33.91399 35195 ft 477 kts 75°
2026-05-06 23:28 55.72172 -33.79841 35195 ft 477 kts 75°
2026-05-06 23:28 55.73198 -33.68287 35196 ft 476 kts 74°
2026-05-06 23:29 55.74215 -33.56706 35191 ft 477 kts 74°
2026-05-06 23:29 55.75221 -33.45119 35199 ft 478 kts 74°
2026-05-06 23:30 55.76217 -33.33519 35195 ft 480 kts 75°
2026-05-06 23:30 55.77211 -33.21796 35188 ft 481 kts 75°
2026-05-06 23:31 55.78188 -33.10141 35283 ft 482 kts 75°
2026-05-06 23:31 55.78678 -33.04252 35177 ft 481 kts 75°
2026-05-06 23:31 55.79160 -32.98397 35188 ft 477 kts 75°
2026-05-06 23:32 55.80112 -32.86785 35177 ft 480 kts 75°
2026-05-06 23:32 55.81057 -32.75106 35174 ft 481 kts 75°
2026-05-06 23:33 55.81995 -32.63363 35185 ft 480 kts 75°
2026-05-06 23:33 55.82922 -32.51615 35184 ft 482 kts 75°
2026-05-06 23:34 55.83834 -32.39916 35189 ft 483 kts 75°
2026-05-06 23:34 55.84744 -32.28085 35178 ft 484 kts 76°
2026-05-06 23:35 55.85643 -32.16240 35182 ft 484 kts 76°
2026-05-06 23:35 55.86526 -32.04457 35180 ft 484 kts 76°
2026-05-06 23:36 55.87405 -31.92580 35186 ft 486 kts 76°
2026-05-06 23:36 55.88269 -31.80713 35176 ft 484 kts 76°
2026-05-06 23:37 55.89122 -31.68863 35176 ft 485 kts 76°
2026-05-06 23:37 55.89967 -31.56978 35177 ft 488 kts 76°
2026-05-06 23:38 55.90801 -31.45045 35178 ft 488 kts 76°
2026-05-06 23:38 55.91625 -31.33095 35178 ft 488 kts 77°
2026-05-06 23:39 55.92436 -31.21162 35175 ft 488 kts 77°
2026-05-06 23:39 55.93241 -31.09154 35165 ft 490 kts 77°
2026-05-06 23:40 55.94031 -30.97167 35162 ft 490 kts 77°
2026-05-06 23:40 55.94815 -30.85106 35165 ft 490 kts 77°
2026-05-06 23:41 55.95583 -30.73100 35172 ft 490 kts 77°
2026-05-06 23:41 55.96344 -30.61025 35179 ft 492 kts 78°
2026-05-06 23:42 55.97092 -30.48954 35169 ft 492 kts 78°
2026-05-06 23:42 55.97827 -30.36895 35172 ft 493 kts 78°
2026-05-06 23:43 55.98558 -30.24712 35167 ft 495 kts 79°
2026-05-06 23:43 55.99273 -30.12573 35168 ft 494 kts 79°
2026-05-06 23:44 55.99953 -30.00422 35169 ft 494 kts 81°
2026-05-06 23:44 56.00461 -29.88204 35161 ft 495 kts 80°
2026-05-06 23:45 56.00946 -29.76013 35167 ft 496 kts 81°
2026-05-06 23:45 56.01416 -29.63762 35160 ft 496 kts 81°
2026-05-06 23:46 56.01872 -29.51512 35146 ft 496 kts 81°
2026-05-06 23:46 56.02317 -29.39191 35149 ft 497 kts 81°
2026-05-06 23:47 56.02746 -29.26950 35127 ft 498 kts 82°
2026-05-06 23:47 56.03167 -29.14604 35141 ft 499 kts 82°
2026-05-06 23:48 56.03572 -29.02351 35142 ft 498 kts 82°
2026-05-06 23:48 56.03970 -28.89987 35154 ft 498 kts 82°
2026-05-06 23:49 56.04351 -28.77711 35161 ft 499 kts 82°
2026-05-06 23:49 56.04723 -28.65351 35165 ft 498 kts 82°
2026-05-06 23:50 56.05081 -28.53017 35133 ft 499 kts 82°
2026-05-06 23:50 56.05598 -28.34466 35128 ft 501 kts 83°
2026-05-06 23:51 56.05927 -28.22081 35135 ft 501 kts 83°
2026-05-06 23:51 56.06244 -28.09671 35132 ft 501 kts 84°
2026-05-06 23:52 56.06548 -27.97266 35124 ft 500 kts 84°
2026-05-06 23:52 56.06839 -27.84919 35129 ft 501 kts 84°
2026-05-06 23:53 56.07118 -27.72555 35131 ft 501 kts 84°
2026-05-06 23:53 56.07386 -27.60120 35113 ft 500 kts 84°
2026-05-06 23:54 56.07640 -27.47727 35126 ft 501 kts 84°
2026-05-06 23:54 56.07882 -27.35344 35124 ft 501 kts 84°
2026-05-06 23:55 56.08112 -27.22940 35119 ft 503 kts 85°
2026-05-06 23:55 56.08331 -27.10444 35089 ft 502 kts 85°
2026-05-06 23:56 56.08535 -26.98062 35118 ft 502 kts 85°
2026-05-06 23:56 56.08728 -26.85639 35117 ft 502 kts 86°